Погода в Туамасине

Мадагаскар     18°08′59″S   49°23′34″E
темп.,
°C
ветер,
м/с
пор.,
м/с
влажн.,
%
обл.,
%
осадки,
мм/ч
давл.,
гПа
погр.,
м
1 марта, пн
пн100:00+28ссв127550 5.1 1011568
03:00+27всв237455 5.8 1010558
06:00+28в237151 0.1 1011874
09:00+28всв126772 0.1 1012932
12:00+28в22685 0.1 1011680
15:00+28вюв447215 0.1 1009642
18:00+28вюв447048 0.0 1010891
21:00+28в457274 0.1 1013852
2 марта, вт
вт200:00+28вюв226734 0.0 1012994
03:00+27ююз247725 0.2 1011462
06:00+27ю447431 1.8 1012850
09:00+28ю447122 2.1 1013907
12:00+28ююв557215 0.8 1011809
15:00+28юв567113 1.0 1010870
18:00+28ююв557114 0.1 1011798
21:00+28ююв34679 0.1 10131048
3 марта, ср
ср300:00+28ю346466 0.0 10121259
03:00+27ю236763 0.1 1011751
06:00+27ююз236516 0.1 1011792
09:00+27ююз33748 0.1 1012476
12:00+27ююв337311 0.0 1010564
15:00+28вюв346356 0.0 1008778
18:00+28в34665 0.0 1009847
21:00+28св12653 0.0 1011972
4 марта, чт
чт400:00+26сз237260 0.1 1010430
03:00+25з337953 0.1 1009145
06:00+26зюз2275100 0.0 1009116
09:00+27с127079 0.1 1010367
12:00+27всв457360 0.0 1007476
15:00+28всв677130 0.0 1005635
18:00+28св89750 0.1 1007856
21:00+28ссв687524 0.8 1009955
5 марта, пт
пт500:00+27с578198 3.5 1008544
03:00+26с578498 4.2 1007551
06:00+26ссз578086 0.8 1008362
09:00+27с567576 0.8 1009409
12:00+28св6675100 0.0 1007420
15:00+29св101176100 0.3 1005503
18:00+28ссв91179100 0.8 1006687
21:00+28с101280100 8.4 1007688